TimeMDT,TemperatureF,Dew PointF,Humidity,Sea Level PressureIn,VisibilityMPH,Wind Direction,Wind SpeedMPH,Gust SpeedMPH,PrecipitationIn,Events,Conditions,WindDirDegrees,DateUTC
12:53 AM,68.0,54.0,61,30.00,10.0,WNW,5.8,-,N/A,,Clear,300,2013-07-18 06:53:00
1:53 AM,69.1,54.0,58,29.99,10.0,Calm,Calm,-,N/A,,Clear,0,2013-07-18 07:53:00
2:53 AM,68.0,54.0,61,30.01,10.0,Calm,Calm,-,N/A,,Clear,0,2013-07-18 08:53:00
3:53 AM,69.1,54.0,58,30.04,10.0,Calm,Calm,-,N/A,,Mostly Cloudy,0,2013-07-18 09:53:00
4:53 AM,68.0,55.0,63,30.07,10.0,NW,5.8,-,N/A,,Mostly Cloudy,320,2013-07-18 10:53:00
5:53 AM,66.9,55.9,68,30.06,10.0,NW,5.8,-,N/A,,Mostly Cloudy,310,2013-07-18 11:53:00
6:53 AM,68.0,55.9,65,30.07,10.0,Calm,Calm,-,N/A,,Clear,0,2013-07-18 12:53:00
7:53 AM,70.0,55.9,61,30.07,10.0,Calm,Calm,-,N/A,,Clear,0,2013-07-18 13:53:00
8:53 AM,72.0,55.9,57,30.07,10.0,Calm,Calm,-,N/A,,Clear,0,2013-07-18 14:53:00
9:53 AM,73.9,54.0,50,30.07,10.0,Calm,Calm,-,N/A,,Clear,0,2013-07-18 15:53:00
10:53 AM,79.0,55.0,44,30.06,10.0,Calm,Calm,-,N/A,,Clear,0,2013-07-18 16:53:00
11:53 AM,81.0,53.1,38,30.04,10.0,Calm,Calm,-,N/A,,Clear,0,2013-07-18 17:53:00
12:53 PM,84.9,52.0,32,30.01,10.0,NNE,3.5,-,N/A,,Clear,20,2013-07-18 18:53:00
1:53 PM,86.0,52.0,31,29.97,10.0,Calm,Calm,-,N/A,,Clear,0,2013-07-18 19:53:00
2:50 PM,89.6,53.6,29,30.17,10.0,SSW,6.9,-,N/A,Thunderstorm,Clear,210,2013-07-18 20:50:00
2:53 PM,88.0,52.0,29,29.95,10.0,SW,3.5,-,N/A,Thunderstorm,Clear,230,2013-07-18 20:53:00
3:05 PM,89.6,51.8,27,30.16,10.0,Variable,4.6,-,N/A,,Clear,0,2013-07-18 21:05:00
3:53 PM,87.1,53.1,31,29.91,10.0,West,6.9,-,N/A,,Clear,270,2013-07-18 21:53:00
4:50 PM,89.6,48.2,24,30.12,10.0,Variable,5.8,-,N/A,Thunderstorm,Clear,0,2013-07-18 22:50:00
4:53 PM,88.0,48.0,25,29.89,10.0,WSW,4.6,-,N/A,Thunderstorm,Clear,250,2013-07-18 22:53:00
5:05 PM,89.6,48.2,24,30.11,10.0,SW,6.9,-,N/A,,Clear,220,2013-07-18 23:05:00
5:53 PM,88.0,52.0,29,29.89,10.0,South,3.5,-,N/A,,Clear,190,2013-07-18 23:53:00
6:53 PM,86.0,48.9,28,29.88,10.0,SSE,11.5,-,N/A,,Clear,150,2013-07-19 00:53:00
7:53 PM,82.0,53.1,37,29.89,10.0,WSW,8.1,-,N/A,,Clear,240,2013-07-19 01:53:00
8:53 PM,77.0,53.1,43,29.92,10.0,SSW,6.9,-,N/A,,Clear,210,2013-07-19 02:53:00
9:53 PM,73.9,52.0,46,29.95,10.0,West,3.5,-,N/A,,Clear,260,2013-07-19 03:53:00
10:53 PM,73.9,53.1,48,29.96,10.0,NNE,3.5,-,N/A,,Clear,30,2013-07-19 04:53:00
11:53 PM,72.0,54.0,53,29.96,10.0,Calm,Calm,-,N/A,,Clear,0,2013-07-19 05:53:00